Regional Weather Roundup
Issued by NWS

Home | Current Version | Previous Version | Graphics & Text | Print | Product List | Glossary On
Versions: 1 2 3 4 5 6 7 8 9 10 11 12 13 14 15 16 17 18 19 20 21 22 23 24 25 26 27 28 29 30 31 32 33 34 35 36 37 38 39 40 41 42 43 44 45 46 47 48 49 50
000
ASUS43 KIND 211409
RWRIN

WEATHER ROUNDUP FOR INDIANA
NATIONAL WEATHER SERVICE INDIANAPOLIS IN
1000 AM EDT SUN SEP 21 2014

NOTE: "FAIR" INDICATES FEW OR NO CLOUDS BELOW 12,000 FEET WITH NO
SIGNIFICANT WEATHER AND/OR OBSTRUCTIONS TO VISIBILITY.

* - STATION DOES NOT REPORT WEATHER SUCH AS PRECIPITATION OR FOG.

+ - STATION NOT QUALITY CONTROLLED BY THE NATIONAL WEATHER SERVICE.
    USE DATA WITH CAUTION...ESPECIALLY DEWPOINT AND RELATIVE
    HUMIDITY OBSERVATIONS.

INZ001>003-010>013-019-020-211500-
NORTHWEST INDIANA

CITY           SKY/WX    TMP DP  RH WIND       PRES   REMARKS
GARY /AIRPORT/ MOSUNNY   63  52  67 W20       29.83R
KNOX *+        MOSUNNY   60  53  75 W17       29.81S
LA PORTE +     PTSUNNY   60  51  73 NW12G24   29.81R
MICHIGAN CITY+ CLOUDY    59  50  72 W17G31    29.81R
MONTICELLO +   SUNNY     62  55  77 W12G18    29.85F
RENSSELAER +   SUNNY     63  55  77 W14G20    29.85S
VALPARAISO     MOSUNNY   60  52  74 W18G24    29.82S

$$

LMZ046-743>745-211500-
SOUTHERN LAKE MICHIGAN

STATION/POSITION TIME  TEMP WIND        PRES
                       AIR  DIR/SP/G
                 (UTC) (F)  (DEG/KT/KT) (MB)
MICHIGAN CITY    1400   60  250/ 30/ 36   N/A

$$

INZ004-005-014>016-021>024-211500-
NORTH CENTRAL INDIANA

CITY           SKY/WX    TMP DP  RH WIND       PRES   REMARKS
ELKHART        PTSUNNY   63  50  63 W15G26    29.78S
GOSHEN         MOSUNNY  N/A N/A N/A W13       29.78S
LOGANSPORT +   SUNNY     61  54  77 W13G20    29.86S
PERU/GRISSOM   SUNNY     62  58  87 W16       29.84F
ROCHESTER +    SUNNY     64  54  68 W13G23    29.82F
SOUTH BEND     PTSUNNY   63  51  65 W26G33    29.79S
WARSAW +       MOSUNNY   61  54  77 W14G23    29.80S

$$

INZ006>009-017-018-025>027-211500-
NORTHEAST INDIANA

CITY           SKY/WX    TMP DP  RH WIND       PRES   REMARKS
ANGOLA *+      PTSUNNY   63  54  72 NW17      29.76S
AUBURN +       MOSUNNY   63  52  67 W9G21     29.79R
FORT WAYNE     PTSUNNY   63  56  78 W17       29.81R
HUNTINGTON +   MOSUNNY   62  55  78 W14G22    29.82R

$$

INZ028-029-035-036-043>045-051>053-211500-
WEST CENTRAL INDIANA

CITY           SKY/WX    TMP DP  RH WIND       PRES   REMARKS
GREENCASTLE +  SUNNY     63  52  67 NW8       29.92R
LAFAYETTE      SUNNY     61  55  81 W10       29.88S
TERRE HAUTE    SUNNY     65  55  70 NW6       29.93R

$$

INZ030>032-037>040-046>048-054>057-064-065-211500-
CENTRAL INDIANA

CITY           SKY/WX    TMP DP  RH WIND       PRES   REMARKS
CP ATTERBURY + PTSUNNY   70  61  73 NW14G24   29.89R
FRANKFORT +    SUNNY     63  55  77 W13       29.89S
INDIANAPOLIS   MOSUNNY   65  54  67 NW13      29.89R
-EAGLE CREEK   SUNNY     65  51  60 NW16G23   29.89R
KOKOMO *+      SUNNY     63  54  72 W18G24    29.85F
MARION +       SUNNY     63  53  70 W13G21    29.85S
MT COMFORT *+  SUNNY     66  48  52 NW12G17   29.89S
SHELBYVILLE    SUNNY     70  59  68 NW14G29   29.87R
ZIONSVILLE +   SUNNY     64  53  66 W10       29.89S

$$

INZ033-034-041-042-049-050-058-059-211500-
EAST CENTRAL INDIANA

CITY           SKY/WX    TMP DP  RH WIND       PRES   REMARKS
MUNCIE         SUNNY     65  53  65 NW14G22   29.85S

$$

INZ060-061-067>069-081>083-085>088-211500-
SOUTHWEST INDIANA

CITY           SKY/WX    TMP DP  RH WIND       PRES   REMARKS
EVANSVILLE     PTSUNNY   73  68  84 NW10      29.95R
WASHINGTON +   PTSUNNY   71  65  82 NW15      29.92R

$$

INZ062-063-066-070>080-084-089>092-211500-
SOUTH CENTRAL AND SOUTHEAST INDIANA

CITY           SKY/WX    TMP DP  RH WIND       PRES   REMARKS
BLOOMINGTON    MOSUNNY   68  60  75 NW9G21    29.92R

$$



USA.gov is the U.S. government's official web portal to all federal, state and local government web resources and services.